This demonstration page uses our WeatherBlox Daily Observations layout. Learn more.

Left ArrowRight Arrow

39.29038, -76.61219

Hourly Observations for November 4, 2020

Temp ( °F °C ) Dew Point ( °F °C ) Humidity (%) Winds ( mph kmh ) Pressure ( in mb ) Visibility ( mi km ) Precip ( " mm )
12:54 am 00:54 Clear 39 3.9 35 1.7 86 86 Calm 30.32 1027 10 16 0.00 0.00
1:54 am 01:54 Clear 38 3.3 34 1.1 86 86 W 3 6 30.35 1028 10 16 0.00 0.00
2:54 am 02:54 Clear 37 2.8 34 1.1 89 89 W 3 6 30.35 1028 10 16 0.00 0.00
3:54 am 03:54 Clear 39 3.9 34 1.1 82 82 Calm 30.37 1028 10 16 0.00 0.00
4:54 am 04:54 Clear 38 3.3 34 1.1 86 86 Calm 30.39 1029 10 16 0.00 0.00
5:54 am 05:54 Clear 36 2.2 33 0.6 89 89 Calm 30.40 1030 10 16 0.00 0.00
6:54 am 06:54 Sunny 36 2.2 33 0.6 89 89 Calm 30.42 1030 10 16 0.00 0.00
7:54 am 07:54 Sunny 44 6.7 37 2.8 76 76 Calm 30.44 1031 10 16 0.00 0.00
8:54 am 08:54 Sunny 50 10 40 4.4 68 68 Calm 30.45 1031 10 16 0.00 0.00
9:54 am 09:54 Sunny 58 14.4 40 4.4 51 51 Calm 30.45 1031 10 16 0.00 0.00
10:54 am 10:54 Sunny 62 16.7 39 3.9 43 43 SW 7 11 30.45 1031 10 16 0.00 0.00
11:54 am 11:54 Sunny 65 18.3 34 1.1 32 32 SSW 8 13 30.42 1030 10 16 0.00 0.00
12:54 pm 12:54 Sunny 68 20 36 2.2 31 31 WSW 10 17 30.40 1030 10 16 0.00 0.00
1:54 pm 13:54 Sunny 69 20.6 35 1.7 29 29 VRB 6 9 30.40 1029 10 16 0.00 0.00
2:54 pm 14:54 Sunny 69 20.6 32 0 25 25 SSW 9 15 30.40 1030 10 16 0.00 0.00
3:54 pm 15:54 Sunny 68 20 35 1.7 30 30 SE 8 13 30.41 1030 10 16 0.00 0.00
4:54 pm 16:54 Sunny 62 16.7 41 5 46 46 SE 8 13 30.42 1030 10 16 0.00 0.00
5:54 pm 17:54 Clear 58 14.4 41 5 53 53 SE 6 9 30.43 1031 10 16 0.00 0.00
6:54 pm 18:54 Clear 57 13.9 43 6.1 60 60 SE 5 7 30.44 1031 10 16 0.00 0.00
7:54 pm 19:54 Clear 55 12.8 44 6.7 67 67 Calm 30.44 1031 10 16 0.00 0.00
8:54 pm 20:54 Clear 55 12.8 45 7.2 69 69 S 3 6 30.44 1031 10 16 0.00 0.00
9:54 pm 21:54 Clear 55 12.8 44 6.7 67 67 VRB 3 6 30.44 1031 10 16 0.00 0.00
10:54 pm 22:54 Clear 54 12.2 45 7.2 72 72 S 5 7 30.45 1031 10 16 0.00 0.00
11:54 pm 23:54 Clear 51 10.6 45 7.2 80 80 Calm 30.44 1031 10 16 0.00 0.00

Powered by AerisWeather